Flag for U.S.A. Weather past 2 weeks in Sitka, Alaska, U.S.A.

Now
57 °F

Overcast.


Feels Like: 56 °F
Forecast: 55 / 60 °F
Wind: 7 mph from South

Location: Sitka Airport

Current Time: Jul 25, 2014 at 5:30:25 PM

Latest Report: Jul 25, 2014 at 4:53 PM


Visibility: 10 mi

Pressure: 29.85 "Hg

Humidity: 90%

Dew point: 54 °F

Location of SitkaLocation

Historic Weather in Sitka — Graph

°F

Sitka temperature yesterday

Maximum temperature yesterday: 59 °F (at 10:53 AM)
Minimum temperature yesterday: 54 °F (at 11:53 PM)
Average temperature yesterday: 57 °F

Past Weeks' High & Low Weather Summary

 TemperatureHumidityPressure
High68 °F (Jul 21, 3:53 PM)100% (Jul 11, 5:53 PM)30.27 "Hg (Jul 11, 5:53 PM)
Low52 °F (Jul 16, 3:53 AM)53% (Jul 21, 4:53 PM)29.65 "Hg (Jul 18, 9:00 PM)
Average57 °F86%30.01 "Hg
* Reported Jul 10 3:53 PM — Jul 25 3:53 PM, Sitka, Weather by CustomWeather, © 2014

Note: Actual official high and low records may vary slightly from our data, if they occured in-between our weather recording intervals... More about our weather records

Advertising

Sitka weather history for previous 24 hours

 ConditionsComfort  
Time TempWeatherWind HumidityBarometerVisibility
3:53 PM
Jul 25
56 °FLight rain. More clouds than sun.9 mph93%29.85 "Hg8 mi
2:53 PM56 °FLight rain. Overcast.7 mph93%29.84 "Hg9 mi
1:53 PM56 °FLight rain. Overcast.10 mph90%29.83 "Hg7 mi
12:53 PM57 °FLight rain. Overcast.13 mph81%29.83 "Hg7 mi
11:53 AM55 °FLight rain. Overcast.8 mph87%29.83 "Hg9 mi
10:53 AM54 °FLight rain. Overcast.5 mph93%29.85 "Hg8 mi
9:53 AM54 °FLight rain. Overcast.No wind90%29.85 "Hg10 mi
8:53 AM54 °FLight rain. More clouds than sun.No wind93%29.86 "Hg10 mi
7:53 AM53 °FLight rain. Mostly cloudy.3 mph96%29.87 "Hg7 mi
6:53 AM53 °FLight rain. More clouds than sun.3 mph93%29.87 "Hg9 mi
5:53 AM53 °FLight rain. More clouds than sun.3 mph93%29.88 "Hg10 mi
4:53 AM53 °FLight rain. Mostly cloudy.3 mph96%29.89 "Hg10 mi
3:53 AM54 °FLight rain. Overcast.No wind90%29.89 "Hg9 mi
2:53 AM54 °FMostly cloudy.No wind90%29.89 "Hg10 mi
1:53 AM55 °FOvercast.No wind87%29.90 "Hg10 mi
12:53 AM55 °FPartly cloudy.3 mph87%29.91 "Hg10 mi
11:53 PM
Jul 24
54 °FOvercast.3 mph90%29.91 "Hg10 mi
10:53 PM55 °FOvercast.No wind87%29.92 "Hg10 mi
9:53 PM55 °FLight rain. Mostly cloudy.3 mph90%29.92 "Hg10 mi
8:53 PM56 °FMostly cloudy.No wind87%29.92 "Hg10 mi
7:53 PM57 °FMostly cloudy.13 mph81%29.92 "Hg10 mi
6:53 PM57 °FMostly cloudy.9 mph83%29.92 "Hg10 mi
5:53 PM57 °FOvercast.15 mph83%29.92 "Hg10 mi
Weather by CustomWeather, © 2014

See weather overviewHow to use our weather pages